Погода в Досанге

Погода в Досанге : погода сейчас, прогноз погоды и архив. Всё, что Вы хотите узнать о погоде в Досанге!

Хотите узнать прогноз погоды в Досанге? Тогда Вам сюда: Погода в Досанге

Поиск расширенной информации на нашем сайте:

Другие новости

Новости СМИ2

Главная страница сайта

Новости сайта

02.10.2013

Напоминаем, что на нашем новом сайте вы можете получить высокодетализированные прогнозы погоды по пунктам России, СНГ и мира (включающие важные для авиации метеовеличины, такие как направление и скорость ветра, видимость, явления погоды, количество и форма облачности, нижняя и верхняя граница облачности), а также ознакомиться с разнообразными материалами по авиационной метеорологии и подборкой полезных ссылок на эту тему.

Сайт Метеоцентр.Азия посвящён разработке технологий оптимизации авиаметеорологического обслуживания, включая проектирование и перспективное создание нескольких автоматизированных авиаметеорологических систем:
- система выпуска высокодетальных прогностических карт явлений погоды для нижнего воздушного пространства по России и ближнему зарубежью;
- система верификации прогнозов TAF (выпускаемых синоптиками официальных АМСГ РФ и ближнего зарубежья) и AUTOTAF (выпускаемых сайтом Метеоцентр.Азия) - выявление ошибок, онлайн-сопоставление с фактической погодой METAR, автоматическое внесение коррективов в прогнозы при резком отклонении фактической погоды от прогноза, подсчёт оправдываемости прогнозов по элементам и в целом;
- система обработки, анализа и отображения авиаметеорологической информации для применения провайдерами метеорологической информации.

Рекомендуем: Портал о строительстве http://fgupniikp.ru

Погода в Досанге - сегодня

Время (UTC), дата Ветер
(°,м/с) 
Видим.   Явления Облачность Т
(°С)
Тd
(°С)
f(%) Тe
(°С)
Pmin
(гПа)
dP
(гПа)
Po
(мм)
O2
(г/м3)
Тmin Tmax R s Состояние
почвы
06 17.02.17 310 (СЗ) 6{10}  20000 м    ясно 
-12.9 -16 78 -19  1025.8  2.4  771  328  -14.4         
09 17.02.17 300 (СЗ) 5{11}  20000 м    ясно 
-10.2 -14.6 70 -15  1027.1  1.3  772  325           
12 17.02.17 310 (СЗ) 20000 м    1/0 верхняя 
[Ci fib]
-8.5 -14.4 62 -12  1027.3  0.2  772  322           
15 17.02.17 320 (СЗ) 10 км    ясно 
-12.5 -14.7 84 -16  1028.4  1.1  773  328    -8.4       
18 17.02.17 240 (ЮЗ) 10 км    ясно 
-16.2 -17.9 87 -16  1029.1  0.8  774  333           
21 17.02.17 230 (ЮЗ) 10 км    ясно 
-19.3 -21.6 82 -20  1028.9  -0.2  774  337           
00 18.02.17 260 (З) 10 км    3/0 верхняя 
[Ci fib]
-19.5 -21.7 83 -20  1028.7  -0.2  773  337           
03 18.02.17 220 (ЮЗ) 2000 м  дымка [диам. изморози 0 мм]  4/0 верхняя 
[Ci fib]
-21.1 -23.5 81 -24  1028.3  -0.4  773  339  -21.2      равномерный
сухой снег
100% 
06 18.02.17 190 (Ю) 2000 м  дымка{туман} [диам. изморози 7 мм]  10/0 средняя 
[Ac und]
-16.4 -18.3 85 -17  1028.6  0.3  773  333  -21.3         
09 18.02.17 200 (Ю) 20000 м  [диам. изморози 7 мм]  9/0 средняя 
[Ac und]
-8.3 -10.4 85 -11  1027.5  -1.1  772  322           
12 18.02.17 200 (Ю) 20000 м    10/0 средняя 
[Ac As]
-4.4 -8.6 72 -8  1025.9  -1.7  771  317           
15 18.02.17 200 (Ю) 10 км    10/0 средняя 
[Ac As]
-3.6 -7.1 77 -7  1025.4  -0.5  771  316    -3.6       
18 18.02.17 220 (ЮЗ) 10 км    10/10 600 м 
[Sc]
-3.6 -7.5 74 -7  1025.2  -0.2  771  315           
21 18.02.17 210 (ЮЗ) 10 км    10/0 верхняя 
[Cs]
-5.9 -9.1 78 -7  1025.2  0.1  771  318           
00 19.02.17 220 (ЮЗ) 10 км    10/0 верхняя 
[Cs]
-4.5 -6.7 85 -6  1024.9  -0.4  770  316           
03 19.02.17 240 (ЮЗ) 4000 м  слаб. снег  10/8 300 м средняя 
[Frnb|As op]
-1.6 -2.6 93 -4  1025.8  0.9  771  313  -6.1    0.0  равномерный
сухой снег
100% 
06 19.02.17 250 (З) 20000 м  {снег}  3/0 средняя, верхняя 
[Ac lent|Cc]
-0.2 -4.6 72 -3  1027.1  1.3  772  312           
09 19.02.17 230 (ЮЗ) 4-11{11}  20000 м    5/0 верхняя 
[Cc]
+3.2 -3 64 +1  1027  -0.1  772  308           
12 19.02.17 240 (ЮЗ) 4{10}  20000 м    ясно 
+3.6 -2.6 64 +2  1027.1  0.1  772  307           
15 19.02.17 240 (ЮЗ) 10 км    8/0 средняя 
[Ac trans]
+1.7 -2.2 75 1027.8  0.7  773  310    +3.7  0.0     
18 19.02.17 240 (ЮЗ) 10 км    ясно 
-1.3 -3.6 84 -2  1028.4  0.6  773  313           
21 19.02.17 220 (ЮЗ) 10 км    10/0 средняя 
[Ac und]
-1.7 -3.5 87 -1  1028.4  773  314           
00 20.02.17 210 (ЮЗ) 10 км    10/0 средняя 
[Ac As]
-0.7 -3 84 -2  1027.6  -0.8  772  312           
03 20.02.17 200 (Ю) 10 км    10/0 средняя 
[Ac As]
-1.2 -3.2 86 -1  1027.5  -0.1  772  313  -3.5      равномерный
мокрый или
старый снег
100% 
06 20.02.17 210 (ЮЗ) 20000 м    3/0 средняя 
[Ac trans]
-1.7 -4.9 79 -3  1027.7  0.2  773  314           
Время (UTC), дата Ветер
(°,м/с) 
Видим.   Явления Облачность Т
(°С)
Тd
(°С)
f(%) Тe
(°С)
Pmin
(гПа)
dP
(гПа)
Po
(мм)
O2
(г/м3)
Тmin Tmax R s Состояние
почвы

Для получения пояснительной информации подведите курсор к названию столбца.

ПОГОДА в Досанге - архив

Всё, что Вы хотите узнать о погоде в Досанге - удобно и подробно!

Выберите нужную дату (начиная с 1 января 2015* года) и нажмите кнопку "Найти".
Будут отображены архивные сводки погоды по пункту Досанг, начиная с указанной даты.


Отображать данные в формате CSV (для использования в таблицах Excel)


Внимание! Наш архив погоды предназначен исключительно для личного некоммерческого использования в познавательных целях. Если Вам необходимы официальные справки о состоянии погоды (для производственных, юридических, коммерческих и т.п. целей), обращайтесь в органы Росгидромета.

*Примечание: данная дата относится к архиву по метеостанциям СССР (Россия, СНГ, Балтия).
Архив по метеостанциям Зарубежной Европы и Азии (кроме Китая) хранится 10 дней, по другим регионам земного шара (Китай, Африка, Америка, Австралия, Океания) - 1 день.

Досанг - район местоположения метеостанции


Название, широта, долгота, высота метеостанции:
Досанг 46.9°ш. 47.9°д. -19 м над ур. моря [Российская Федерация]

Дополнительная информация

В oтличие oт бoльшинства пoгoдных сайтoв мы публикуем пoдрoбную метеoинфoрмацию в детальнoм прoфессиoнальнoм фoрмате.

Характеристики температуры и влажнoсти вoздуха измеряются на высoте 2 м в тени вдали oт зданий и деревьев.
Скoрoсть ветра измеряется на высoте 10 м (на урoвне рoста челoвека скoрoсть ветра ниже в 1.5-2 раза). Если метеoстанция нахoдится в гoрoде или в лесу, тo скoрoсть ветра занижена на 2-4 м/с пo сравнению с oткрытым местoм. Скoрoсть ветра над акватoриями крупных рек и oзёр, а также на вершинах хoлмoв на 2-5 м/с выше, чем в oбычных услoвиях.
Атмoсфернoе давление в разных тoчках местнoсти мoжет значительнo oтличаться oт давления на метеoстанции, в зависимoсти oт услoвий рельефа (при пoдъёме на 10 м давление пoнижается примернo на 1 мм рт.ст.).